Location: Newark
(36.1358°N, 115.1208°W)
Time: 12:34:14
(UTC+00:00)

Vanguard 1 Rocket - Pass Details

Date: 26 February 2020
Orbit: 650 x 4226 km, 34.3° (Epoch: 08 April)

Event Time Altitude Azimuth Distance (km) Brightness Sun altitude
Rises 05:08:36 0° 202° (SSW) 7,925 12.2 -43.7°
Reaches altitude 10° 05:16:46 10° 189° (S) 6,314 11.5 -45.2°
Enters shadow 05:19:09 13° 184° (S) 5,846 11.3 -45.6°
Maximum altitude 05:28:19 20° 150° (SSE) 4,353 - -47.3°
Drops below altitude 10° 05:36:14 10° 108° (ESE) 4,202 - -48.6°
Sets 05:40:02 0° 92° (E) 4,698 - -49.3°
